�N����,����,�~����,�C��,���x,�C��,����,���ϕ���,�ő�u�ԕ���,�ő厞����,���˗�,�I�_���x,�n�����x,�ő啗���N��,DTYPE
"20/03/02","00:10",0.0,7.9,77.6,1011.6,333.1,3.1,5.0,338.4,0.00,4.3,9.2,"00:01:28",1
"20/03/02","00:20",0.0,7.8,78.0,1011.6,330.6,3.0,5.6,315.9,0.00,4.2,9.3,"00:12:48",1
"20/03/02","00:30",0.0,7.8,78.2,1011.4,331.3,2.8,4.7,322.6,0.00,4.3,9.3,"00:23:20",1
"20/03/02","00:40",0.0,7.8,78.6,1011.6,330.1,2.5,5.0,333.5,0.00,4.4,9.3,"00:38:56",1
"20/03/02","00:50",0.0,7.9,78.8,1011.4,334.4,3.2,5.1,343.0,0.00,4.5,9.3,"00:43:04",1
"20/03/02","01:00",0.0,7.8,78.8,1011.2,332.3,2.8,5.2,337.2,0.00,4.4,9.4,"00:53:44",1
"20/03/02","01:10",0.0,7.8,79.1,1011.2,326.3,3.0,4.3,334.8,0.00,4.4,9.3,"01:04:24",1
"20/03/02","01:20",0.0,7.7,79.4,1010.7,327.7,3.2,4.9,322.0,0.00,4.4,9.3,"01:14:16",1
"20/03/02","01:30",0.0,7.6,79.6,1011.2,328.5,2.5,4.1,318.0,0.00,4.3,9.1,"01:29:12",1
"20/03/02","01:40",0.0,7.6,79.8,1010.7,328.8,2.7,3.9,341.0,0.00,4.4,9.2,"01:30:08",1
"20/03/02","01:50",0.0,7.4,80.3,1010.7,329.3,2.1,3.5,318.5,0.00,4.3,9.2,"01:45:28",1
"20/03/02","02:00",0.0,7.4,80.7,1010.4,332.6,2.3,3.9,337.4,0.00,4.3,9.0,"01:58:08",1
"20/03/02","02:10",0.0,7.5,81.1,1010.4,328.0,2.3,3.4,330.0,0.00,4.5,8.9,"02:03:12",1
"20/03/02","02:20",0.0,7.4,81.5,1010.7,323.6,1.7,2.8,338.6,0.00,4.5,9.1,"02:17:12",1
"20/03/02","02:30",0.0,7.4,81.9,1010.0,322.3,2.5,3.4,325.8,0.00,4.6,9.1,"02:25:12",1
"20/03/02","02:40",0.0,7.6,81.9,1010.0,321.5,2.8,4.0,315.7,0.00,4.8,9.0,"02:30:40",1
"20/03/02","02:50",0.0,7.6,82.0,1009.7,307.9,2.1,3.1,322.1,0.00,4.8,9.2,"02:49:04",1
"20/03/02","03:00",0.0,7.6,82.2,1009.7,305.0,2.3,4.1,317.1,0.00,4.8,9.1,"02:56:48",1
"20/03/02","03:10",0.0,7.4,82.3,1009.5,317.9,2.8,3.9,338.5,0.00,4.6,9.0,"03:09:52",1
"20/03/02","03:20",0.0,7.3,82.5,1009.0,307.9,2.5,3.5,316.5,0.00,4.6,9.0,"03:10:08",1
"20/03/02","03:30",0.0,7.2,82.8,1009.3,316.4,3.4,4.9,327.1,0.00,4.5,8.9,"03:29:52",1
"20/03/02","03:40",0.0,7.2,83.0,1009.3,330.5,3.2,5.4,341.0,0.00,4.5,8.9,"03:34:00",1
"20/03/02","03:50",0.0,7.0,83.3,1009.3,329.4,3.0,5.1,341.9,0.00,4.4,8.9,"03:47:12",1
"20/03/02","04:00",0.0,6.8,83.5,1008.6,327.6,2.7,4.4,333.7,0.00,4.2,8.9,"03:54:42",1
"20/03/02","04:10",0.0,6.7,83.9,1008.8,328.0,2.6,4.4,334.0,0.00,4.2,8.9,"04:03:12",1
"20/03/02","04:20",0.0,6.7,84.2,1008.8,327.6,3.0,4.4,311.0,0.00,4.3,8.7,"04:17:06",1
"20/03/02","04:30",0.0,6.7,84.5,1008.6,323.0,3.2,4.2,334.7,0.00,4.3,8.9,"04:20:16",1
"20/03/02","04:40",0.0,6.8,84.7,1009.0,319.3,3.9,5.7,327.1,0.00,4.4,8.8,"04:36:16",1
"20/03/02","04:50",0.0,6.9,84.8,1008.8,323.1,3.2,4.7,334.3,0.00,4.6,8.9,"04:44:10",1
"20/03/02","05:00",0.0,6.9,84.9,1009.3,331.4,2.0,3.4,341.4,0.00,4.6,8.7,"04:51:28",1
"20/03/02","05:10",0.0,6.9,85.1,1009.3,323.3,1.7,3.6,319.6,0.00,4.6,8.6,"05:09:04",1
"20/03/02","05:20",0.0,7.2,85.2,1009.3,320.7,2.5,3.7,330.5,0.00,4.9,8.7,"05:11:52",1
"20/03/02","05:30",0.0,7.2,85.2,1009.3,309.0,2.7,6.2,340.5,0.00,4.9,8.6,"05:20:02",1
"20/03/02","05:40",0.0,7.3,85.1,1009.5,314.2,2.8,4.9,340.5,0.00,5.0,8.7,"05:31:44",1
"20/03/02","05:50",0.0,7.2,85.1,1009.3,306.7,2.7,4.1,334.7,0.00,4.9,8.7,"05:40:02",1
"20/03/02","06:00",0.0,7.3,85.0,1009.3,317.6,3.0,4.3,332.4,0.00,5.0,8.8,"05:50:32",1
"20/03/02","06:10",0.0,7.3,85.0,1009.3,300.4,1.5,2.2,322.4,0.00,5.0,8.7,"06:01:12",1
"20/03/02","06:20",0.0,7.3,85.0,1009.3,299.2,1.6,2.1,318.8,0.00,5.0,8.7,"06:17:12",1
"20/03/02","06:30",0.0,7.3,85.1,1009.5,326.2,1.5,2.1,348.1,0.00,5.0,8.6,"06:25:36",1
"20/03/02","06:40",0.0,7.3,85.3,1009.5,297.1,1.3,1.8,319.2,0.00,5.0,8.5,"06:30:48",1
"20/03/02","06:50",0.0,7.2,85.6,1009.5,316.4,1.7,2.1,318.8,0.00,5.0,8.8,"06:43:36",1
"20/03/02","07:00",0.0,7.3,86.0,1009.5,295.6,1.5,1.9,296.3,0.00,5.2,8.7,"06:59:36",1
"20/03/02","07:10",0.0,7.4,86.2,1009.5,301.9,2.0,2.7,313.8,0.00,5.3,8.7,"07:03:44",1
"20/03/02","07:20",0.0,7.5,86.4,1009.5,296.4,1.6,2.0,300.9,0.00,5.4,8.8,"07:10:56",1
"20/03/02","07:30",0.0,7.6,86.4,1010.0,284.4,1.6,2.4,304.6,0.00,5.5,8.7,"07:28:48",1
"20/03/02","07:40",0.0,7.8,86.3,1010.0,273.8,1.5,2.2,308.7,0.00,5.7,8.7,"07:32:24",1
"20/03/02","07:50",0.0,7.9,86.1,1010.4,297.2,1.7,2.5,326.6,0.00,5.8,8.7,"07:49:52",1
"20/03/02","08:00",0.0,8.1,86.0,1010.2,316.8,1.1,1.9,333.4,0.00,5.9,8.8,"07:50:08",1
"20/03/02","08:10",0.0,8.2,85.8,1010.2,259.8,0.3,0.8,300.8,0.00,6.0,8.9,"08:00:48",1
"20/03/02","08:20",0.0,8.1,85.7,1010.7,280.4,1.3,2.1,305.4,0.00,5.9,8.7,"08:10:02",1
"20/03/02","08:30",0.0,8.2,85.5,1010.9,293.2,1.5,2.0,299.5,0.01,6.0,9.0,"08:20:08",1
"20/03/02","08:40",0.0,8.5,85.3,1010.7,319.6,1.3,2.1,314.8,0.01,6.2,9.0,"08:37:04",1
"20/03/02","08:50",0.0,8.7,85.2,1010.7,301.9,1.0,1.7,308.6,0.03,6.4,9.0,"08:44:00",1
"20/03/02","09:00",0.0,8.9,85.1,1010.9,293.1,0.7,1.3,287.2,0.05,6.6,8.9,"08:58:32",1
"20/03/02","09:10",0.0,9.4,85.0,1011.4,277.5,1.3,1.7,285.4,0.10,7.0,9.2,"09:02:00",1
"20/03/02","09:20",0.0,9.7,84.1,1011.6,268.7,1.1,1.7,273.4,0.11,7.2,9.1,"09:14:24",1
"20/03/02","09:30",0.0,10.1,83.6,1011.6,287.7,1.1,1.7,271.8,0.13,7.5,9.2,"09:22:56",1
"20/03/02","09:40",0.0,10.4,81.6,1011.4,319.6,1.6,2.7,335.7,0.16,7.4,9.2,"09:39:52",1
"20/03/02","09:50",0.0,10.8,79.3,1012.1,300.1,0.8,2.0,328.7,0.16,7.4,9.3,"09:40:08",1
"20/03/02","10:00",0.0,11.3,77.0,1011.9,130.9,1.0,2.4,133.0,0.32,7.5,9.5,"09:59:44",1
"20/03/02","10:10",0.0,11.9,74.0,1011.9,161.1,1.5,3.2,125.4,0.39,7.5,9.8,"10:05:52",1
"20/03/02","10:20",0.0,12.4,71.0,1012.1,174.2,1.3,2.8,125.4,0.37,7.3,9.8,"10:10:08",1
"20/03/02","10:30",0.0,12.6,68.2,1011.9,115.6,1.2,2.6,109.4,0.39,6.9,10.0,"10:26:32",1
"20/03/02","10:40",0.0,12.9,67.1,1011.6,150.5,1.2,3.1,153.9,0.40,7.0,10.2,"10:39:04",1
"20/03/02","10:50",0.0,13.1,66.5,1011.4,179.3,1.5,2.7,230.5,0.41,7.0,10.6,"10:45:28",1
"20/03/02","11:00",0.0,13.6,66.1,1011.2,173.3,1.3,2.8,152.0,0.45,7.4,10.8,"10:58:16",1
"20/03/02","11:10",0.0,14.3,65.2,1011.2,209.5,1.2,3.1,197.6,0.48,7.9,11.1,"11:07:20",1
"20/03/02","11:20",0.0,14.5,64.4,1011.2,173.2,1.5,3.7,129.4,0.46,7.9,11.3,"11:18:40",1
"20/03/02","11:30",0.0,15.0,64.3,1011.4,184.1,1.2,2.7,201.9,0.48,8.4,11.5,"11:28:56",1
"20/03/02","11:40",0.0,15.5,62.9,1010.7,163.3,1.0,2.9,205.6,0.47,8.5,11.7,"11:30:48",1
"20/03/02","11:50",0.0,15.5,59.2,1010.7,231.6,2.1,4.5,231.3,0.50,7.6,12.0,"11:45:44",1
"20/03/02","12:00",0.0,15.8,57.7,1010.7,286.9,1.8,4.1,319.7,0.50,7.5,12.3,"11:54:00",1
"20/03/02","12:10",0.0,16.4,56.8,1010.0,312.3,1.8,3.5,337.1,0.51,7.9,12.3,"12:06:24",1
"20/03/02","12:20",0.0,16.4,53.0,1010.2,283.9,2.1,4.7,329.7,0.52,6.8,12.5,"12:18:56",1
"20/03/02","12:30",0.0,16.2,53.0,1010.2,234.8,2.2,5.7,221.2,0.53,6.7,13.0,"12:29:04",1
"20/03/02","12:40",0.0,16.8,52.7,1009.7,251.2,2.3,5.9,331.4,0.53,7.1,13.1,"12:39:20",1
"20/03/02","12:50",0.0,17.1,50.6,1009.5,267.1,2.2,4.4,311.3,0.53,6.8,13.2,"12:47:36",1
"20/03/02","13:00",0.0,17.1,51.0,1008.8,248.9,2.5,5.8,217.8,0.54,6.9,13.4,"12:58:56",1
"20/03/02","13:10",0.0,17.7,49.2,1009.0,242.7,1.8,4.5,246.8,0.54,7.0,13.6,"13:00:02",1
"20/03/02","13:20",0.0,17.6,47.1,1008.8,234.6,2.0,3.7,206.3,0.47,6.2,13.7,"13:18:24",1
"20/03/02","13:30",0.0,17.8,46.4,1008.8,242.8,3.0,7.3,219.3,0.52,6.2,13.9,"13:29:52",1
"20/03/02","13:40",0.0,17.6,45.4,1008.8,297.6,3.4,7.1,341.9,0.37,5.7,13.9,"13:34:48",1
"20/03/02","13:50",0.0,18.0,46.0,1008.6,305.6,2.2,4.7,334.2,0.40,6.3,14.2,"13:44:08",1
"20/03/02","14:00",0.0,18.1,45.2,1008.6,290.1,2.3,4.3,302.0,0.46,6.1,14.3,"13:58:32",1
"20/03/02","14:10",0.0,18.0,45.7,1008.3,284.1,2.7,5.4,309.5,0.51,6.2,14.2,"14:03:28",1
"20/03/02","14:20",0.0,18.9,45.1,1008.1,296.2,2.2,5.1,324.1,0.59,6.8,14.6,"14:11:12",1
"20/03/02","14:30",0.0,19.2,43.9,1008.1,274.9,2.3,4.7,301.0,0.58,6.7,14.6,"14:27:36",1
"20/03/02","14:40",0.0,18.2,43.3,1008.1,267.3,2.2,4.0,327.9,0.31,5.6,14.8,"14:39:20",1
"20/03/02","14:50",0.0,17.5,46.8,1008.3,268.6,1.6,3.4,227.2,0.17,6.1,14.7,"14:47:12",1
"20/03/02","15:00",0.0,17.0,44.9,1008.1,312.8,3.0,6.3,342.6,0.13,5.0,14.7,"14:58:40",1
"20/03/02","15:10",0.0,17.2,48.4,1008.3,307.3,2.2,4.9,341.4,0.15,6.3,14.7,"15:00:24",1
"20/03/02","15:20",0.0,17.1,49.8,1008.3,284.4,1.6,3.5,346.8,0.12,6.6,14.9,"15:14:32",1
"20/03/02","15:30",0.0,17.2,52.4,1008.3,262.8,2.2,4.2,266.9,0.24,7.4,14.7,"15:22:16",1
"20/03/02","15:40",0.0,17.6,51.5,1008.3,252.4,2.2,4.5,231.9,0.31,7.5,14.5,"15:34:24",1
"20/03/02","15:50",0.0,17.0,52.7,1009.0,246.8,2.2,4.8,233.8,0.16,7.3,14.6,"15:46:56",1
"20/03/02","16:00",0.0,16.6,53.9,1009.0,250.6,1.7,3.7,230.3,0.10,7.3,14.3,"15:57:44",1
"20/03/02","16:10",0.0,16.7,54.6,1009.0,257.7,2.2,4.0,253.7,0.13,7.6,14.4,"16:06:00",1
"20/03/02","16:20",0.0,16.6,53.9,1009.0,266.7,2.1,3.9,242.1,0.10,7.3,14.3,"16:15:28",1
"20/03/02","16:30",0.0,17.0,53.6,1009.3,285.8,2.0,3.3,327.1,0.18,7.6,14.4,"16:26:56",1
"20/03/02","16:40",0.0,16.8,53.2,1009.0,264.1,1.7,3.5,263.7,0.11,7.3,14.1,"16:38:16",1
"20/03/02","16:50",0.0,16.8,53.2,1009.3,301.4,2.0,4.5,344.9,0.10,7.3,14.2,"16:49:04",1
"20/03/02","17:00",0.0,15.8,55.5,1009.5,353.0,2.8,6.7,347.2,0.04,7.0,14.1,"16:56:48",1
"20/03/02","17:10",0.0,15.2,57.9,1009.7,350.1,3.4,5.2,348.5,0.04,7.0,14.1,"17:04:56",1
"20/03/02","17:20",0.0,14.9,59.6,1010.2,351.3,3.7,8.3,352.0,0.03,7.2,13.9,"17:14:48",1
"20/03/02","17:30",0.0,14.7,61.1,1010.2,346.4,4.1,7.9,349.3,0.02,7.3,13.9,"17:27:44",1
"20/03/02","17:40",0.0,14.2,63.9,1010.7,341.5,3.6,6.4,339.8,0.01,7.5,13.6,"17:30:16",1
"20/03/02","17:50",0.0,13.7,65.7,1010.9,341.1,3.6,7.7,337.8,0.00,7.4,13.3,"17:48:26",1
"20/03/02","18:00",0.0,13.5,66.4,1011.2,344.0,3.4,5.5,345.9,0.00,7.4,13.5,"17:52:06",1
"20/03/02","18:10",0.0,13.4,66.6,1011.2,347.8,2.6,4.4,8.2,0.00,7.4,13.3,"18:00:24",1
"20/03/02","18:20",0.0,13.1,66.6,1011.2,329.8,2.5,5.0,320.4,0.00,7.1,13.2,"18:19:40",1
"20/03/02","18:30",0.0,12.8,67.0,1011.6,331.0,2.6,4.8,327.3,0.00,6.9,13.0,"18:20:40",1
"20/03/02","18:40",0.0,12.4,67.3,1011.9,322.9,2.6,5.8,326.4,0.00,6.6,13.0,"18:35:40",1
"20/03/02","18:50",0.0,12.3,67.5,1012.1,299.3,1.8,3.4,303.2,0.00,6.5,13.0,"18:44:42",1
"20/03/02","19:00",0.0,12.0,67.7,1012.3,339.9,3.1,5.5,325.9,0.00,6.3,12.7,"18:56:28",1
"20/03/02","19:10",0.0,11.7,68.2,1012.8,342.5,2.7,5.0,354.0,0.00,6.1,12.8,"19:07:52",1
"20/03/02","19:20",0.0,11.4,68.7,1012.8,335.9,3.0,4.9,328.9,0.00,5.9,12.4,"19:16:44",1
"20/03/02","19:30",0.0,11.1,69.2,1012.8,336.8,2.6,5.1,357.7,0.00,5.7,12.6,"19:24:22",1
"20/03/02","19:40",0.0,11.0,69.2,1013.3,334.4,2.2,5.7,319.7,0.00,5.6,12.3,"19:33:02",1
"20/03/02","19:50",0.0,10.8,69.3,1013.8,350.8,1.7,3.3,326.7,0.00,5.4,12.2,"19:45:36",1
"20/03/02","20:00",0.0,10.7,69.3,1013.8,350.6,2.0,3.9,358.6,0.00,5.4,12.3,"19:57:50",1
"20/03/02","20:10",0.0,10.3,69.2,1014.5,333.0,2.1,4.1,320.3,0.00,4.9,11.8,"20:08:36",1
"20/03/02","20:20",0.0,10.2,67.8,1014.5,321.0,3.0,4.7,334.8,0.00,4.6,11.6,"20:13:30",1
"20/03/02","20:30",0.0,10.1,66.6,1014.9,330.1,3.0,4.8,329.2,0.00,4.2,11.6,"20:22:40",1
"20/03/02","20:40",0.0,9.8,65.8,1014.7,335.1,2.2,4.4,346.5,0.00,3.8,11.6,"20:31:12",1
"20/03/02","20:50",0.0,9.8,65.2,1015.2,336.8,1.8,3.1,332.4,0.00,3.6,11.5,"20:43:04",1
"20/03/02","21:00",0.0,9.4,66.2,1015.2,338.3,2.0,4.3,327.8,0.00,3.5,11.5,"20:59:20",1
"20/03/02","21:10",0.0,8.8,67.3,1015.2,319.5,1.6,2.8,321.5,0.00,3.1,11.4,"21:00:08",1
"20/03/02","21:20",0.0,8.5,68.7,1015.6,323.5,1.2,3.1,319.0,0.00,3.1,11.1,"21:19:28",1
"20/03/02","21:30",0.0,7.8,70.0,1015.2,312.7,1.8,2.2,325.6,0.00,2.7,11.0,"21:20:08",1
"20/03/02","21:40",0.0,7.7,71.0,1015.6,307.4,2.2,3.2,328.9,0.00,2.8,10.7,"21:35:36",1
"20/03/02","21:50",0.0,7.6,71.8,1015.2,325.7,2.5,3.6,330.8,0.00,2.9,11.0,"21:46:56",1
"20/03/02","22:00",0.0,7.9,71.8,1015.6,303.1,2.5,5.0,330.5,0.00,3.2,10.8,"21:50:02",1
"20/03/02","22:10",0.0,8.0,71.4,1016.1,328.0,3.4,4.9,325.9,0.00,3.2,10.8,"22:00:08",1
"20/03/02","22:20",0.0,8.1,70.0,1015.9,314.3,3.4,5.1,322.7,0.00,3.0,10.6,"22:16:24",1
"20/03/02","22:30",0.0,8.5,66.2,1015.9,316.1,4.0,6.4,338.0,0.00,2.6,10.5,"22:22:48",1
"20/03/02","22:40",0.0,8.4,63.9,1015.6,308.7,2.6,4.4,329.1,0.00,2.0,10.4,"22:35:28",1
"20/03/02","22:50",0.0,8.2,63.6,1015.9,265.4,1.8,2.9,269.3,0.00,1.8,10.2,"22:44:24",1
"20/03/02","23:00",0.0,8.2,63.3,1016.1,273.5,2.0,4.2,250.9,0.00,1.7,10.4,"22:52:58",1
"20/03/02","23:10",0.0,7.9,63.4,1015.9,273.8,1.2,1.8,311.8,0.00,1.4,10.2,"23:05:28",1
"20/03/02","23:20",0.0,7.9,64.5,1016.1,284.9,2.1,3.9,296.2,0.00,1.7,10.1,"23:15:36",1
"20/03/02","23:30",0.0,8.0,64.8,1016.4,289.7,2.0,3.2,304.3,0.00,1.8,10.2,"23:26:48",1
"20/03/02","23:40",0.0,7.9,64.9,1016.1,305.6,1.8,3.2,327.7,0.00,1.8,10.1,"23:32:08",1
"20/03/02","23:50",0.0,7.7,65.6,1015.9,286.3,2.0,3.7,314.7,0.00,1.7,10.1,"23:48:16",1
"20/03/02","24:00",0.0,7.5,66.2,1016.1,329.1,1.3,2.8,317.0,0.00,1.6,9.8,"23:50:40",1
